| time (UTC) | temp C | wind direction | speed KPH | gust KPH | rain 1hr cm | rain 24hr cm | rain mn cm | humidity % | barometer mb |
| 20260505123054 | 12 | 248 | 0.0 | 4.8 | 0.00 | 0.00 | 0.00 | 84 | 1014.9 |
| 20260505121536 | 12 | 286 | 1.6 | 9.7 | 0.00 | 0.00 | 0.00 | 84 | 1014.8 |
| 20260505120041 | 12 | 0 | 0.0 | 9.7 | 0.00 | 0.00 | 0.00 | 84 | 1014.5 |
| 20260505114546 | 12 | 219 | 3.2 | 11.3 | 0.00 | 0.00 | 0.00 | 85 | 1014.6 |
| 20260505113034 | 12 | 206 | 0.0 | 6.4 | 0.00 | 0.00 | 0.00 | 85 | 1014.6 |
| 20260505111533 | 11 | 145 | 0.0 | 6.4 | 0.00 | 0.00 | 0.00 | 85 | 1014.6 |
| 20260505101530 | 11 | 0 | 0.0 | 6.4 | 0.00 | 0.00 | 0.00 | 86 | 1014.2 |
| 20260505100034 | 11 | 201 | 0.0 | 6.4 | 0.00 | 0.00 | 0.00 | 85 | 1014.1 |
| 20260505094534 | 11 | 168 | 1.6 | 11.3 | 0.00 | 0.00 | 0.00 | 85 | 1014.0 |
| 20260505093042 | 11 | 170 | 3.2 | 8.0 | 0.00 | 0.00 | 0.00 | 85 | 1013.9 |
| 20260505091543 | 11 | 186 | 1.6 | 11.3 | 0.00 | 0.00 | 0.00 | 86 | 1013.9 |
| 20260505090048 | 11 | 0 | 0.0 | 4.8 | 0.00 | 0.00 | 0.00 | 86 | 1013.8 |
| 20260505084535 | 11 | 152 | 1.6 | 6.4 | 0.00 | 0.00 | 0.00 | 87 | 1013.8 |
| 20260505083034 | 11 | 0 | 0.0 | 4.8 | 0.00 | 0.00 | 0.00 | 88 | 1013.8 |
| 20260505081538 | 11 | 0 | 0.0 | 0.0 | 0.00 | 0.00 | 0.00 | 88 | 1013.8 |
| 20260505080047 | 11 | 0 | 0.0 | 0.0 | 0.00 | 0.00 | 0.00 | 86 | 1013.7 |
| 20260505074535 | 11 | 0 | 0.0 | 1.6 | 0.00 | 0.00 | 0.00 | 87 | 1013.6 |
| 20260505073048 | 11 | 0 | 0.0 | 6.4 | 0.00 | 0.00 | 0.00 | 87 | 1013.3 |
| 20260505071533 | 11 | 236 | 0.0 | 6.4 | 0.00 | 0.00 | 0.00 | 86 | 1013.2 |
| 20260505070049 | 11 | 0 | 1.6 | 4.8 | 0.00 | 0.00 | 0.00 | 86 | 1013.2 |
| 20260505064537 | 11 | 0 | 0.0 | 0.0 | 0.00 | 0.00 | 0.00 | 85 | 1013.0 |
| 20260505063036 | 11 | 0 | 0.0 | 3.2 | 0.00 | 0.00 | 0.00 | 84 | 1012.9 |
| 20260505061533 | 12 | 0 | 0.0 | 4.8 | 0.00 | 0.00 | 0.00 | 84 | 1012.6 |
| 20260505060035 | 12 | 259 | 0.0 | 6.4 | 0.00 | 0.00 | 0.00 | 83 | 1012.5 |
| 20260505054530 | 12 | 0 | 0.0 | 3.2 | 0.00 | 0.00 | 0.00 | 83 | 1012.2 |
| 20260505053037 | 12 | 225 | 1.6 | 6.4 | 0.00 | 0.00 | 0.00 | 82 | 1012.2 |
| 20260505051536 | 12 | 288 | 0.0 | 6.4 | 0.00 | 0.00 | 0.00 | 81 | 1012.1 |
| 20260505050111 | 13 | 0 | 1.6 | 8.0 | 0.00 | 0.00 | 0.00 | 80 | 1012.0 |
| 20260505041548 | 13 | 0 | 1.6 | 9.7 | 0.00 | 0.00 | 0.00 | 77 | 1011.6 |
| 20260505040052 | 14 | 360 | 3.2 | 14.5 | 0.00 | 0.00 | 0.00 | 75 | 1011.5 |
| 20260505034537 | 15 | 226 | 1.6 | 9.7 | 0.00 | 0.00 | 0.00 | 72 | 1011.4 |
| 20260505033042 | 16 | 0 | 1.6 | 8.0 | 0.00 | 0.00 | 0.00 | 71 | 1011.1 |
| 20260505031544 | 16 | 360 | 3.2 | 9.7 | 0.00 | 0.00 | 0.00 | 69 | 1011.0 |
| 20260505030040 | 17 | 0 | 0.0 | 8.0 | 0.00 | 0.00 | 0.00 | 67 | 1010.8 |
| 20260505024537 | 18 | 291 | 1.6 | 12.9 | 0.00 | 0.00 | 0.00 | 65 | 1010.4 |
| 20260505023043 | 18 | 355 | 0.0 | 11.3 | 0.00 | 0.00 | 0.00 | 64 | 1010.4 |
| 20260505021540 | 20 | 303 | 3.2 | 11.3 | 0.00 | 0.00 | 0.00 | 62 | 1010.3 |
| 20260505020036 | 21 | 294 | 1.6 | 8.0 | 0.00 | 0.00 | 0.00 | 59 | 1010.3 |
| 20260505014553 | 21 | 310 | 3.2 | 16.1 | 0.00 | 0.00 | 0.00 | 58 | 1010.3 |
| 20260505013031 | 22 | 241 | 1.6 | 9.7 | 0.00 | 0.00 | 0.00 | 55 | 1010.2 |
| 20260505011537 | 22 | 0 | 1.6 | 12.9 | 0.00 | 0.00 | 0.00 | 53 | 1010.4 |
| 20260505010036 | 23 | 350 | 4.8 | 19.3 | 0.00 | 0.00 | 0.00 | 54 | 1010.3 |
| 20260505004539 | 23 | 305 | 3.2 | 11.3 | 0.00 | 0.00 | 0.00 | 55 | 1010.3 |
| 20260505003035 | 23 | 342 | 3.2 | 12.9 | 0.00 | 0.00 | 0.00 | 53 | 1010.2 |
| 20260505001537 | 25 | 254 | 1.6 | 14.5 | 0.00 | 0.00 | 0.00 | 52 | 1010.1 |
| 20260505000040 | 23 | 290 | 3.2 | 12.9 | 0.00 | 0.00 | 0.00 | 55 | 1010.1 |
| 20260504234546 | 23 | 333 | 3.2 | 12.9 | 0.00 | 0.00 | 0.00 | 54 | 1010.2 |
| 20260504233035 | 23 | 264 | 3.2 | 14.5 | 0.00 | 0.00 | 0.00 | 55 | 1010.3 |
| 20260504231536 | 23 | 330 | 3.2 | 17.7 | 0.00 | 0.00 | 0.00 | 54 | 1010.4 |
| 20260504230031 | 24 | 250 | 1.6 | 11.3 | 0.00 | 0.00 | 0.00 | 54 | 1010.6 |
| 20260504224536 | 24 | 329 | 4.8 | 16.1 | 0.00 | 0.00 | 0.00 | 55 | 1010.6 |
| 20260504223042 | 24 | 299 | 1.6 | 16.1 | 0.00 | 0.00 | 0.00 | 54 | 1010.6 |
| 20260504221537 | 24 | 273 | 3.2 | 11.3 | 0.00 | 0.00 | 0.00 | 54 | 1010.8 |
| 20260504220036 | 24 | 340 | 3.2 | 9.7 | 0.00 | 0.00 | 0.00 | 54 | 1010.8 |
| 20260504214536 | 24 | 251 | 4.8 | 14.5 | 0.00 | 0.00 | 0.00 | 56 | 1010.9 |
| 20260504213054 | 24 | 273 | 1.6 | 14.5 | 0.00 | 0.00 | 0.00 | 55 | 1010.9 |
| 20260504211538 | 24 | 270 | 3.2 | 11.3 | 0.00 | 0.00 | 0.00 | 54 | 1011.0 |
| 20260504210038 | 23 | 304 | 3.2 | 11.3 | 0.00 | 0.00 | 0.00 | 54 | 1011.0 |
| 20260504204534 | 23 | 280 | 1.6 | 16.1 | 0.00 | 0.00 | 0.00 | 55 | 1011.2 |
| 20260504203039 | 23 | 270 | 1.6 | 9.7 | 0.00 | 0.00 | 0.00 | 56 | 1011.3 |
| 20260504201537 | 23 | 271 | 3.2 | 14.5 | 0.00 | 0.00 | 0.00 | 56 | 1011.3 |
| 20260504200036 | 23 | 244 | 0.0 | 9.7 | 0.00 | 0.00 | 0.00 | 55 | 1011.4 |
| 20260504194542 | 23 | 344 | 3.2 | 9.7 | 0.00 | 0.00 | 0.00 | 53 | 1011.3 |
| 20260504193043 | 22 | 211 | 1.6 | 14.5 | 0.00 | 0.00 | 0.00 | 52 | 1011.5 |
| 20260504191534 | 22 | 344 | 3.2 | 11.3 | 0.00 | 0.00 | 0.00 | 53 | 1011.6 |
| 20260504190041 | 22 | 205 | 3.2 | 8.0 | 0.00 | 0.00 | 0.00 | 52 | 1011.8 |
| 20260504184536 | 21 | 278 | 1.6 | 9.7 | 0.00 | 0.00 | 0.00 | 57 | 1011.9 |
| 20260504183035 | 21 | 326 | 3.2 | 9.7 | 0.00 | 0.00 | 0.00 | 56 | 1012.0 |
| 20260504181535 | 21 | 282 | 1.6 | 9.7 | 0.00 | 0.00 | 0.00 | 57 | 1011.9 |
| 20260504180035 | 20 | 329 | 1.6 | 12.9 | 0.00 | 0.00 | 0.00 | 61 | 1011.8 |
| 20260504174536 | 20 | 0 | 3.2 | 4.8 | 0.00 | 0.00 | 0.00 | 61 | 1011.9 |
| 20260504173045 | 20 | 259 | 0.0 | 6.4 | 0.00 | 0.00 | 0.00 | 61 | 1011.9 |
| 20260504171535 | 19 | 263 | 3.2 | 11.3 | 0.00 | 0.00 | 0.00 | 62 | 1011.8 |